Wind_Speed
24 24 24 25 25 25 26 27 27 27 28 29 30 30 29 29 31 32 32 33 33 32 32 33 34 33 33 33 35 36 37 38 39 40 41 41 41 41 41 40 40 42 42 41
24 25 25 25 25 26 27 27 27 27 28 29 29 29 29 28 29 30 31 31 31 31 31 32 33 33 34 34 35 36 36 37 38 39 40 41 41 41 40 40 40 40 40 40
24 23 23 24 24 25 26 26 26 27 27 28 29 28 27 27 28 29 29 30 30 30 30 30 31 32 34 35 35 35 36 36 37 38 39 40 40 40 40 40 39 38 38 40
23 22 23 23 24 24 25 25 25 26 26 26 27 27 25 25 27 28 28 28 29 29 29 30 30 31 32 33 34 34 34 35 36 37 38 38 38 38 39 39 39 38 37 39
23 23 23 22 23 23 23 23 24 25 26 25 25 26 24 25 25 26 26 27 27 27 27 28 29 29 29 31 32 32 32 33 34 35 36 36 37 37 37 38 38 39 38 38
23 22 22 22 22 22 22 22 23 24 25 24 23 25 24 24 24 25 25 26 26 26 26 27 27 27 28 29 29 30 32 32 34 34 34 36 36 35 36 37 38 39 38 38
22 22 22 22 22 22 22 22 23 23 24 23 22 24 23 23 23 23 24 25 26 26 26 26 26 26 27 27 28 29 30 31 33 33 33 34 34 34 35 36 38 39 37 37
23 22 22 21 22 22 22 22 23 23 24 23 22 23 23 22 22 23 23 24 25 25 25 24 23 24 25 26 27 29 29 30 31 31 32 32 32 33 34 35 37 37 37 36
22 22 22 22 22 23 23 23 23 24 25 25 23 23 23 23 22 23 24 25 25 24 25 25 23 24 25 26 27 27 28 29 30 31 31 32 33 34 35 35 35 35 35 35
22 23 22 22 23 23 24 24 24 24 25 26 25 24 25 24 23 24 25 26 26 25 25 25 24 24 24 26 26 27 27 28 28 30 32 33 33 34 35 34 34 34 34 34
23 23 23 22 22 22 23 23 24 25 26 26 26 25 24 25 24 25 26 26 26 25 24 24 25 25 25 26 27 27 27 28 29 30 31 31 32 33 33 33 33 34 34 34
23 24 23 23 22 22 23 23 23 24 25 26 27 26 25 26 26 26 26 27 27 26 25 24 25 25 26 26 27 27 28 28 28 29 29 30 31 32 32 32 32 33 34 34
23 24 24 24 24 23 23 23 23 24 25 25 26 26 26 26 26 26 27 27 26 26 25 25 25 26 25 26 26 26 26 26 26 27 28 29 29 30 31 31 32 33 33 33
24 24 24 24 24 24 24 23 24 24 25 26 26 26 25 25 26 26 26 26 26 26 26 25 24 25 25 25 25 24 25 25 25 25 26 27 28 29 30 30 31 31 32 32
25 25 24 24 24 24 24 24 23 24 25 27 27 27 25 25 26 26 26 26 25 26 25 24 23 23 24 24 23 23 24 24 24 24 25 26 26 27 28 28 29 30 30 31
24 24 24 24 24 24 24 24 24 24 25 27 28 27 25 25 25 25 25 25 25 25 25 24 22 22 23 23 23 24 23 23 24 24 24 25 25 27 28 28 28 30 30 31
24 24 24 24 23 24 23 23 24 24 25 26 26 25 25 24 25 24 24 24 24 25 25 24 23 23 23 24 24 24 24 24 24 25 25 26 26 27 28 28 29 30 31 31
23 24 24 24 23 23 22 23 23 24 23 24 24 24 24 24 24 24 24 24 24 25 25 25 24 23 24 25 25 25 25 24 24 25 25 26 26 27 27 27 28 29 30 30
23 24 24 24 23 23 22 22 23 24 24 23 24 24 23 23 23 23 23 24 25 26 26 25 24 24 24 24 23 24 24 24 23 24 25 25 26 27 27 27 28 28 28 28
23 23 25 24 24 23 22 22 23 24 24 23 23 23 23 23 22 22 23 24 25 25 25 24 23 24 24 24 24 24 24 23 23 24 24 25 25 27 27 27 27 27 27 28
23 24 24 25 25 24 22 22 23 24 24 23 23 23 23 23 22 22 23 24 25 24 24 23 23 23 24 24 24 24 23 22 22 23 23 24 25 27 27 27 27 27 27 28
24 25 24 24 25 23 22 23 23 23 24 24 24 23 24 23 23 23 23 23 24 24 23 23 23 23 23 24 24 23 23 22 22 23 24 24 25 27 26 27 26 26 25 25
24 25 24 24 23 23 23 24 24 24 23 24 24 24 24 24 24 24 24 23 23 22 22 22 23 23 23 24 24 23 23 23 23 23 24 25 26 25 25 24 25 24 24 23
25 25 24 24 23 23 24 24 24 24 24 24 24 24 24 24 23 24 25 25 24 22 22 22 22 23 23 24 23 23 22 22 22 23 23 24 24 24 23 23 23 23 23 22
25 25 24 23 23 24 24 24 24 24 24 24 25 25 24 24 24 24 24 24 24 24 23 22 22 22 23 22 22 23 22 22 22 22 22 22 23 23 23 23 23 22 21 21
25 25 24 23 23 24 24 24 24 24 24 24 25 25 25 25 24 25 25 24 24 24 24 23 23 23 23 23 23 23 23 23 23 22 22 22 22 22 23 22 21 21 21 21
Wind_Direction
274 275 277 278 276 276 277 278 280 280 279 278 278 278 278 278 279 279 279 277 275 274 274 272 270 267 265 262 262 261 259 256 256 256 257 258 258 259 260 260 261 262 264 265
275 276 277 277 277 277 279 280 281 281 279 280 281 279 279 279 280 281 280 279 276 275 274 273 271 269 267 264 265 263 260 258 257 258 258 259 259 260 260 260 261 263 263 264
276 277 278 277 278 279 280 282 283 284 282 282 283 281 281 282 281 281 281 280 278 276 275 273 271 271 268 267 266 263 261 258 258 259 261 261 260 260 261 261 261 263 264 265
277 277 278 278 279 280 281 283 285 286 285 284 285 287 286 285 284 281 280 281 280 277 276 275 272 272 270 268 266 263 261 259 259 261 262 261 261 260 261 261 261 263 265 265
279 277 279 278 278 280 282 285 287 288 287 286 287 289 290 290 287 284 283 283 282 279 278 276 273 272 271 269 266 262 261 260 260 262 262 260 259 260 261 261 261 263 265 266
281 280 279 279 278 279 281 285 289 291 291 289 288 290 292 293 292 288 284 283 284 280 279 277 274 273 273 270 265 261 261 261 261 263 263 261 261 261 261 261 261 262 266 266
280 282 280 279 278 278 280 284 290 295 296 293 291 291 295 295 293 292 288 285 285 281 278 277 276 275 273 269 265 264 264 264 263 264 266 264 263 262 262 262 262 262 266 266
283 282 279 277 277 277 279 284 289 294 296 294 292 294 298 297 294 291 289 287 288 284 282 282 279 276 272 270 267 265 269 268 266 266 267 267 265 263 264 265 264 263 265 266
285 284 282 278 278 278 278 281 285 289 292 292 292 294 297 297 293 291 290 289 289 288 286 284 281 277 275 273 273 271 270 271 269 270 270 269 267 265 267 268 266 265 266 266
286 285 284 281 279 278 278 281 282 284 288 291 292 293 297 295 293 292 293 290 289 288 285 283 281 280 277 276 276 276 274 274 274 273 271 270 268 269 270 268 267 268 267 266
284 285 284 283 282 281 279 280 281 283 283 287 292 294 296 297 296 294 292 291 290 290 289 284 282 280 279 279 279 279 278 277 276 274 273 270 270 270 268 265 265 267 267 266
283 284 285 284 284 282 279 280 281 281 282 284 289 293 294 295 295 293 292 291 291 291 290 287 282 281 281 282 282 282 282 279 278 276 275 272 271 270 267 265 266 268 268 269
282 282 284 284 283 281 281 280 279 280 283 284 287 291 294 294 294 293 293 293 292 292 291 289 284 282 285 285 284 284 283 281 280 278 277 275 275 272 269 268 269 270 270 271
280 280 281 284 286 284 281 281 280 280 283 284 287 290 292 294 294 293 293 293 292 290 291 290 288 285 285 287 286 285 284 284 283 282 280 279 278 275 272 271 271 273 273 274
279 280 282 282 283 283 282 281 283 283 284 284 286 289 292 293 294 293 292 293 293 292 293 292 290 287 287 287 286 286 286 285 284 283 283 283 281 278 276 274 274 275 276 277
280 280 281 282 283 282 282 281 283 286 287 287 287 289 292 293 293 292 292 291 292 293 294 293 290 286 287 289 288 286 286 287 286 285 285 283 281 280 278 275 276 276 276 278
280 281 282 283 283 283 283 285 286 289 290 290 290 291 291 292 293 293 292 291 293 294 294 293 291 288 288 288 287 286 287 288 286 284 283 281 279 279 278 276 278 278 278 279
282 283 283 284 284 285 289 288 288 289 292 291 290 292 293 293 293 293 293 293 293 295 294 291 289 288 288 287 287 287 287 288 286 283 282 280 277 277 277 278 280 279 278 278
283 283 285 286 286 287 287 291 292 293 293 295 293 293 294 295 293 292 293 293 293 294 294 291 287 284 284 286 288 288 289 290 287 285 284 281 278 277 276 279 280 280 280 280
284 283 284 285 286 289 291 292 293 294 295 296 297 295 296 296 293 294 292 293 293 293 292 292 288 285 285 287 288 289 290 291 289 286 284 282 280 278 278 279 280 281 283 283
286 285 285 286 287 288 292 293 295 295 296 296 296 294 294 295 295 296 294 293 295 295 293 290 288 287 287 289 291 292 292 291 290 287 286 284 283 281 280 279 281 282 284 285
287 286 285 286 288 292 293 293 293 293 293 294 294 292 292 292 293 295 296 296 294 293 291 290 289 288 290 291 292 293 294 293 292 290 288 286 285 285 283 284 285 285 286 286
288 287 284 285 289 291 291 290 290 291 292 292 292 293 293 294 293 294 295 295 294 293 291 289 288 288 289 292 294 294 295 295 295 295 292 290 288 287 287 288 287 284 284 285
290 288 285 285 288 289 289 289 288 289 290 290 290 292 293 294 295 296 295 294 293 292 291 290 288 287 288 291 295 298 296 296 296 297 296 294 291 289 289 290 290 287 283 283
289 289 287 285 285 285 287 287 287 289 289 289 290 292 292 293 294 296 298 296 294 292 291 291 291 289 290 291 294 295 295 296 296 295 295 295 291 288 289 290 289 286 285 284
290 290 288 287 286 285 286 288 288 289 291 292 292 292 290 291 293 295 296 297 296 294 292 292 290 289 292 295 295 294 293 295 294 294 295 294 290 288 287 287 285 284 284 283
Height
5714 5715 5714 5713 5713 5712 5711 5710 5709 5708 5706 5705 5704 5703 5702 5700 5698 5697 5695 5694 5693 5692 5692 5691 5690 5691 5691 5692 5694 5695 5697 5699 5701 5704 5706 5709 5711 5712 5714 5716 5716 5718 5719 5719
5709 5709 5708 5707 5707 5706 5705 5704 5703 5701 5699 5698 5697 5696 5695 5693 5691 5689 5687 5686 5685 5684 5684 5683 5683 5683 5683 5684 5685 5686 5687 5689 5691 5693 5696 5698 5700 5702 5703 5705 5706 5708 5709 5709
5703 5704 5702 5701 5701 5700 5699 5697 5696 5694 5693 5692 5690 5689 5688 5686 5684 5682 5680 5678 5677 5676 5676 5676 5676 5675 5675 5676 5676 5677 5678 5680 5682 5684 5686 5687 5689 5691 5693 5695 5696 5697 5698 5700
5697 5697 5696 5695 5695 5694 5693 5692 5690 5688 5686 5685 5683 5681 5681 5679 5677 5675 5673 5672 5671 5670 5669 5668 5668 5667 5667 5667 5668 5668 5670 5671 5673 5674 5676 5677 5679 5680 5682 5685 5686 5687 5688 5689
5691 5691 5690 5690 5689 5688 5687 5686 5685 5683 5680 5679 5677 5675 5676 5672 5670 5669 5668 5666 5664 5663 5662 5661 5661 5660 5659 5660 5660 5661 5662 5663 5664 5665 5666 5668 5669 5670 5672 5674 5676 5677 5678 5678
5686 5685 5685 5684 5683 5683 5682 5681 5680 5677 5675 5674 5673 5670 5669 5667 5665 5663 5662 5660 5658 5657 5656 5655 5654 5653 5652 5652 5652 5653 5654 5654 5655 5656 5657 5659 5660 5661 5662 5664 5666 5666 5667 5668
5680 5680 5679 5678 5678 5678 5677 5676 5674 5672 5669 5669 5668 5665 5665 5662 5659 5657 5656 5655 5653 5651 5650 5649 5648 5647 5646 5646 5646 5646 5646 5647 5648 5648 5649 5649 5650 5651 5652 5654 5655 5656 5657 5658
5674 5675 5674 5673 5672 5672 5671 5670 5669 5666 5664 5664 5662 5660 5660 5657 5655 5652 5651 5649 5648 5646 5644 5643 5642 5641 5640 5640 5639 5639 5639 5639 5640 5640 5640 5641 5641 5642 5643 5644 5645 5646 5647 5649
5669 5669 5668 5667 5667 5667 5666 5665 5664 5662 5659 5658 5657 5656 5655 5653 5650 5648 5646 5644 5642 5641 5639 5638 5636 5635 5635 5634 5633 5632 5632 5631 5631 5632 5632 5632 5633 5633 5634 5634 5635 5637 5638 5640
5664 5664 5663 5662 5661 5661 5660 5659 5658 5656 5654 5652 5652 5651 5650 5647 5645 5644 5641 5639 5637 5636 5634 5632 5631 5630 5629 5628 5627 5626 5624 5624 5623 5623 5623 5624 5624 5624 5624 5625 5626 5628 5629 5630
5659 5658 5658 5657 5656 5655 5655 5654 5652 5650 5649 5647 5645 5648 5644 5642 5639 5637 5635 5633 5632 5630 5628 5626 5625 5624 5623 5622 5620 5619 5617 5616 5615 5615 5614 5614 5615 5615 5616 5617 5618 5619 5620 5620
5653 5653 5652 5652 5651 5649 5649 5648 5647 5646 5644 5642 5640 5643 5639 5637 5634 5632 5630 5628 5626 5624 5622 5620 5619 5618 5617 5615 5614 5612 5610 5609 5608 5607 5606 5606 5606 5606 5607 5608 5610 5610 5610 5611
5648 5647 5646 5646 5647 5645 5643 5642 5641 5640 5638 5637 5635 5637 5634 5631 5629 5627 5624 5622 5620 5618 5616 5614 5613 5611 5610 5608 5607 5605 5603 5602 5601 5599 5599 5599 5599 5599 5599 5600 5601 5601 5602 5602
5642 5641 5642 5641 5639 5638 5638 5637 5635 5634 5632 5631 5630 5629 5629 5626 5623 5621 5618 5616 5614 5612 5610 5608 5606 5604 5603 5602 5600 5599 5597 5596 5595 5593 5593 5592 5592 5592 5592 5593 5593 5593 5593 5593
5636 5636 5636 5635 5634 5633 5632 5631 5630 5629 5627 5626 5625 5623 5622 5620 5617 5615 5613 5611 5609 5607 5605 5603 5601 5599 5597 5596 5594 5593 5591 5590 5589 5588 5587 5586 5585 5585 5585 5585 5585 5585 5585 5585
5630 5630 5630 5629 5628 5627 5626 5626 5625 5623 5621 5619 5618 5618 5616 5614 5612 5610 5608 5605 5603 5601 5599 5597 5595 5594 5592 5590 5589 5587 5586 5584 5583 5582 5581 5580 5579 5578 5578 5578 5578 5578 5577 5576
5625 5624 5623 5623 5622 5620 5621 5621 5619 5617 5615 5613 5612 5612 5610 5608 5606 5603 5602 5600 5597 5595 5593 5591 5589 5588 5586 5585 5583 5582 5580 5578 5577 5576 5575 5574 5573 5572 5571 5571 5570 5570 5569 5568
5620 5618 5617 5616 5616 5615 5618 5615 5613 5611 5609 5607 5605 5604 5603 5601 5599 5597 5595 5593 5592 5590 5588 5586 5584 5582 5580 5579 5577 5576 5574 5572 5570 5569 5568 5567 5565 5565 5564 5563 5562 5561 5560 5560
5614 5613 5611 5610 5609 5609 5610 5609 5606 5604 5604 5602 5599 5598 5597 5595 5593 5592 5590 5587 5586 5584 5582 5580 5578 5576 5575 5573 5571 5569 5567 5566 5564 5562 5561 5559 5558 5557 5557 5556 5555 5554 5553 5552
5608 5607 5607 5605 5603 5603 5605 5603 5600 5599 5598 5596 5593 5592 5590 5589 5588 5587 5584 5581 5579 5578 5576 5574 5572 5571 5569 5567 5565 5563 5561 5559 5557 5556 5554 5553 5552 5551 5550 5549 5548 5546 5545 5544
5603 5601 5601 5599 5597 5598 5599 5596 5594 5594 5594 5590 5588 5586 5584 5582 5581 5580 5577 5575 5573 5571 5570 5568 5566 5565 5563 5561 5559 5558 5555 5553 5551 5550 5548 5547 5545 5544 5543 5542 5540 5539 5538 5536
5596 5595 5594 5593 5592 5594 5592 5590 5589 5588 5586 5584 5582 5580 5578 5576 5575 5573 5571 5569 5567 5565 5563 5562 5560 5559 5557 5556 5554 5552 5550 5548 5546 5544 5542 5541 5539 5538 5536 5534 5533 5532 5531 5530
5591 5590 5588 5588 5589 5587 5585 5583 5582 5581 5579 5578 5576 5574 5572 5570 5569 5567 5565 5563 5561 5559 5557 5556 5554 5553 5551 5550 5548 5546 5544 5542 5540 5538 5536 5535 5533 5531 5529 5528 5526 5525 5524 5523
5585 5583 5582 5582 5582 5580 5578 5577 5575 5574 5573 5571 5570 5568 5566 5564 5563 5561 5559 5557 5555 5553 5551 5549 5548 5546 5545 5543 5541 5539 5537 5536 5534 5532 5530 5528 5526 5525 5523 5521 5519 5518 5517 5516
5579 5577 5575 5575 5575 5573 5572 5570 5569 5568 5566 5565 5563 5561 5560 5558 5557 5555 5553 5551 5549 5547 5545 5543 5541 5540 5538 5537 5535 5533 5531 5530 5528 5526 5524 5522 5520 5518 5517 5515 5513 5512 5511 5511
5573 5571 5570 5569 5568 5566 5566 5564 5563 5561 5560 5558 5557 5555 5553 5552 5550 5548 5546 5544 5542 5540 5538 5537 5535 5534 5532 5530 5529 5527 5525 5524 5522 5520 5517 5516 5514 5512 5511 5510 5508 5507 5506 5505